User: anonymous   Login
Location: Poughquag
(41.6090°N, 73.6820°W)
Time: 15:01:58
(UTC-04:00)
Language:

Hubble Space Telescope - Orbit

View from above orbital plane
View from above orbital plane
View from above satellite
View from above satellite

Ground track
Ground track

The orbit data is extracted from the following two-line orbital elements,

1 20580U 90037B   24205.41184191  .00009761  00000-0  45441-3 0  9990
2 20580  28.4684 102.3409 0002619  67.6022 292.4848 15.18231748682541
Epoch (UTC): 23 July 2024 09:53:03
Eccentricity: 0.0002619
inclination: 28.4684°
perigee height: 509 km
apogee height: 513 km
right ascension of ascending node: 102.3409°
argument of perigee: 67.6022°
revolutions per day: 15.18231748
mean anomaly at epoch: 292.4848°
orbit number at epoch: 68254

The dashed part of the orbit path shows where the satellite is in the earth's shadow,  

DLR